Location: Newark
(48.0000°N, 67.0000°E)
Time: 00:31:32
(UTC+00:00)

N. Korean satellite - Pass Details

Date: 26 January 2020
Orbit: 456 x 505 km, 97.2° (Epoch: 24 February)

Event Time Altitude Azimuth Distance (km) Brightness Sun altitude
Rises 02:07:18 0° 3° (N) 2,537 10.1 -10.2°
Reaches altitude 10° 02:09:30 10° 353° (N) 1,662 9.0 -9.9°
Maximum altitude 02:12:40 31° 291° (WNW) 882 7.3 -9.3°
Drops below altitude 10° 02:15:52 10° 228° (SW) 1,675 9.0 -8.8°
Sets 02:18:05 0° 218° (SW) 2,560 10.0 -8.5°
